Dewpoint
63 62 61 60 60 59 58 58 57 57 57 56 56 55 55 56 57 56 56 56 56 55 55 54 54 53 52 51 51 51 50 50 49 48 48 48 46 46 45 45 45 45
62 61 61 60 60 59 58 58 57 57 56 56 56 56 56 56 56 56 55 55 55 54 54 53 53 52 51 51 50 49 49 49 48 49 47 46 46 45 45 45 44 44
61 60 60 60 59 58 57 57 57 57 56 56 56 56 56 56 55 55 54 54 54 53 53 52 52 51 50 50 49 49 48 48 48 48 48 46 46 45 45 45 44 44
61 60 60 59 59 58 57 57 57 57 57 56 56 56 56 56 54 54 55 55 53 53 52 51 51 50 50 49 49 48 48 48 48 48 47 47 47 45 45 45 45 44
59 59 59 59 58 58 57 57 57 56 56 56 55 56 56 54 53 53 53 53 53 52 51 51 50 50 49 49 49 48 49 47 47 47 46 45 46 45 45 44 44 43
59 59 59 58 58 57 57 57 57 56 55 55 55 55 54 54 53 53 53 52 52 51 51 50 50 49 49 48 48 48 48 47 47 46 45 45 45 45 44 44 43 43
58 58 58 58 57 57 57 56 56 56 56 56 55 54 54 53 52 52 52 52 52 51 50 50 49 49 49 48 48 47 47 47 46 45 44 45 45 44 44 43 43 42
57 57 57 57 57 56 56 56 56 56 56 56 55 54 53 52 51 51 51 52 51 50 50 49 49 48 48 47 47 47 46 46 46 45 44 44 44 43 43 44 43 42
57 57 57 57 56 56 56 56 55 55 55 55 54 53 52 51 50 50 50 51 51 50 49 49 48 48 48 47 46 46 46 46 46 45 44 44 44 44 43 43 42 43
56 56 56 56 56 55 55 55 54 54 54 53 52 51 50 49 49 49 50 50 50 50 49 49 48 48 47 47 46 46 45 45 45 45 45 45 45 44 44 44 43 43
55 56 56 55 55 54 54 53 53 53 53 51 50 49 48 48 49 48 49 50 50 49 49 49 48 47 47 46 46 46 45 44 44 44 44 44 44 45 46 44 45 44
55 55 55 54 54 53 53 52 52 52 51 50 49 47 47 47 47 48 49 49 49 49 48 48 47 47 46 46 45 45 45 45 45 44 44 43 43 43 44 44 44 44
55 54 54 54 53 52 51 51 50 50 49 48 48 47 46 46 46 46 47 47 47 47 47 46 46 45 45 45 44 44 44 42 41 41 41 42 41 41 42 43 44 45
54 54 53 53 52 51 50 49 49 48 48 47 47 46 45 45 45 45 46 45 46 46 46 46 45 44 44 44 44 43 43 41 41 41 41 40 41 41 42 42 44 45
54 53 53 52 50 49 49 48 47 47 46 46 46 46 46 44 44 44 44 44 44 45 44 44 44 44 44 43 43 42 41 41 41 41 40 40 40 39 40 40 42 45
53 53 52 50 49 49 48 47 46 46 45 45 44 44 44 44 43 44 44 43 43 43 43 44 44 44 45 44 43 42 41 40 41 41 40 40 40 39 39 39 39 40
53 53 51 50 49 48 47 46 45 45 44 43 43 43 43 44 43 43 43 43 43 43 43 43 43 44 42 40 40 41 41 41 40 40 39 39 39 38 38 39 38 38
53 52 51 49 48 47 46 45 44 44 43 43 42 43 43 42 42 42 42 42 42 42 42 42 42 43 39 39 39 39 41 41 39 39 39 38 37 37 38 38 37 38
52 52 50 49 48 47 46 45 44 43 42 42 42 42 41 41 40 40 40 41 41 40 41 41 40 39 38 39 39 38 38 39 37 38 37 37 36 36 36 37 38 40
52 51 50 48 47 46 45 44 43 42 42 42 42 41 40 40 40 39 39 39 40 40 39 39 39 39 38 38 38 37 37 38 36 37 37 36 36 36 37 36 37 38
51 50 49 48 47 46 45 44 43 42 42 42 40 40 39 39 38 38 38 39 38 38 38 38 39 38 37 37 37 36 36 36 37 37 37 37 37 36 36 36 36 37
51 50 49 47 46 45 44 43 43 42 41 41 40 39 39 38 38 38 38 37 37 37 37 37 38 37 36 36 36 36 37 38 37 37 37 38 38 38 37 36 36 36
51 49 48 46 45 45 44 44 42 42 41 41 39 38 38 37 37 37 37 36 37 36 36 36 36 37 36 36 36 36 36 37 37 36 36 36 36 37 39 40 38 36
50 49 47 46 46 45 45 44 43 41 40 40 38 38 37 37 36 36 36 36 36 35 35 35 35 37 36 36 36 36 37 35 35 35 35 35 35 35 37 38 42 41
50 48 46 46 46 45 44 44 42 41 41 40 39 38 37 37 38 35 36 36 35 35 39 35 35 37 36 36 36 36 37 35 34 33 33 34 34 34 35 35 36 39
49 48 47 46 45 45 45 44 42 40 39 39 38 38 37 37 37 36 35 35 37 38 38 35 35 36 37 36 36 36 36 36 34 33 34 33 33 33 33 34 35 36